TimeCST,TemperatureF,Dew PointF,Humidity,Sea Level PressureIn,VisibilityMPH,Wind Direction,Wind SpeedMPH,Gust SpeedMPH,PrecipitationIn,Events,Conditions,WindDirDegrees,DateUTC
12:15 AM,32.0,31.3,97,30.16,4.0,Calm,Calm,-,N/A,,Clear,0,2013-11-03 05:15:00
12:35 AM,31.6,30.9,97,30.16,1.2,Calm,Calm,-,N/A,,Mist,0,2013-11-03 05:35:00
12:55 AM,32.0,31.6,99,30.16,0.5,Calm,Calm,-,N/A,Fog,Fog,0,2013-11-03 05:55:00
1:15 AM,31.1,30.6,98,30.17,1.2,Calm,Calm,-,N/A,,Mist,0,2013-11-03 06:15:00
1:35 AM,30.4,30.0,99,30.18,0.2,Calm,Calm,-,N/A,Fog,Light Freezing Fog,0,2013-11-03 06:35:00
1:55 AM,30.9,30.2,97,30.19,1.0,Calm,Calm,-,N/A,,Mist,0,2013-11-03 06:55:00
1:15 AM,31.1,30.4,97,30.19,0.5,Calm,Calm,-,N/A,Fog,Light Freezing Fog,0,2013-11-03 07:15:00
1:35 AM,30.2,29.7,98,30.20,5.0,Calm,Calm,-,N/A,,Clear,0,2013-11-03 07:35:00
1:55 AM,29.8,29.3,98,30.21,4.0,Calm,Calm,-,N/A,,Clear,0,2013-11-03 07:55:00
2:15 AM,29.3,28.8,98,30.21,4.0,Calm,Calm,-,N/A,,Clear,0,2013-11-03 08:15:00
2:35 AM,30.7,30.2,98,30.21,4.0,Calm,Calm,-,N/A,,Clear,0,2013-11-03 08:35:00
2:55 AM,29.8,29.3,98,30.22,5.0,Calm,Calm,-,N/A,,Clear,0,2013-11-03 08:55:00
3:15 AM,28.2,27.7,98,30.22,0.5,Calm,Calm,-,N/A,Fog,Light Freezing Fog,0,2013-11-03 09:15:00
3:35 AM,30.4,30.0,99,30.23,0.2,Calm,Calm,-,N/A,Fog,Light Freezing Fog,0,2013-11-03 09:35:00
3:55 AM,28.6,28.2,99,30.23,0.5,Calm,Calm,-,N/A,Fog,Light Freezing Fog,0,2013-11-03 09:55:00
4:15 AM,28.4,27.9,98,30.24,2.0,Calm,Calm,-,N/A,,Clear,0,2013-11-03 10:15:00
4:35 AM,28.9,28.4,98,30.24,10.0,Calm,Calm,-,N/A,,Clear,0,2013-11-03 10:35:00
4:55 AM,28.2,27.5,97,30.25,1.8,Calm,Calm,-,N/A,,Mist,0,2013-11-03 10:55:00
5:15 AM,29.1,28.4,97,30.25,5.0,Calm,Calm,-,N/A,,Clear,0,2013-11-03 11:15:00
5:35 AM,27.5,26.8,97,30.25,5.0,Calm,Calm,-,N/A,,Clear,0,2013-11-03 11:35:00
5:55 AM,26.4,25.7,97,30.27,3.0,Calm,Calm,-,N/A,,Clear,0,2013-11-03 11:55:00
6:15 AM,27.7,27.0,97,30.27,2.0,Calm,Calm,-,N/A,,Clear,0,2013-11-03 12:15:00
6:35 AM,28.2,27.5,97,30.27,0.8,Calm,Calm,-,N/A,,Mist,0,2013-11-03 12:35:00
6:55 AM,28.0,27.3,97,30.29,5.0,Calm,Calm,-,N/A,,Clear,0,2013-11-03 12:55:00
7:15 AM,28.9,28.2,97,30.29,7.0,Calm,Calm,-,N/A,,Clear,0,2013-11-03 13:15:00
7:35 AM,31.1,30.2,96,30.30,5.0,Calm,Calm,-,N/A,,Clear,0,2013-11-03 13:35:00
7:55 AM,33.1,32.2,96,30.31,7.0,Calm,Calm,-,N/A,,Clear,0,2013-11-03 13:55:00
8:15 AM,35.6,34.5,96,30.32,10.0,Calm,Calm,-,N/A,,Clear,0,2013-11-03 14:15:00
8:35 AM,38.3,36.7,94,30.31,10.0,Calm,Calm,-,N/A,,Clear,0,2013-11-03 14:35:00
8:55 AM,40.1,37.0,89,30.30,10.0,Calm,Calm,-,N/A,,Clear,0,2013-11-03 14:55:00
9:15 AM,42.6,37.6,82,30.30,10.0,ESE,3.5,-,N/A,,Clear,120,2013-11-03 15:15:00
9:35 AM,44.8,36.7,73,30.31,10.0,Calm,Calm,-,N/A,,Clear,0,2013-11-03 15:35:00
9:55 AM,46.8,35.6,65,30.31,10.0,East,4.6,-,N/A,,Clear,100,2013-11-03 15:55:00
10:15 AM,47.3,34.0,60,30.31,10.0,South,5.8,-,N/A,,Clear,170,2013-11-03 16:15:00
10:35 AM,48.2,34.0,58,30.31,10.0,SSE,5.8,-,N/A,,Clear,150,2013-11-03 16:35:00
10:55 AM,49.3,34.7,57,30.31,10.0,SSE,4.6,-,N/A,,Clear,150,2013-11-03 16:55:00
11:15 AM,49.3,34.2,56,30.31,10.0,SSE,9.2,-,N/A,,Scattered Clouds,160,2013-11-03 17:15:00
11:35 AM,49.6,33.4,54,30.30,10.0,SSE,4.6,-,N/A,,Scattered Clouds,150,2013-11-03 17:35:00
11:55 AM,50.5,33.3,52,30.29,10.0,South,8.1,-,N/A,,Mostly Cloudy,170,2013-11-03 17:55:00
12:15 PM,49.3,32.5,53,30.28,10.0,SE,3.5,-,N/A,,Scattered Clouds,140,2013-11-03 18:15:00
12:35 PM,48.7,32.5,54,30.27,10.0,SE,5.8,-,N/A,,Scattered Clouds,140,2013-11-03 18:35:00
12:55 PM,51.4,31.3,46,30.27,10.0,SSE,8.1,-,N/A,,Mostly Cloudy,150,2013-11-03 18:55:00
1:15 PM,50.4,33.1,52,30.27,10.0,SE,5.8,-,N/A,,Mostly Cloudy,130,2013-11-03 19:15:00
1:35 PM,52.0,32.2,47,30.26,10.0,SE,4.6,-,N/A,,Mostly Cloudy,130,2013-11-03 19:35:00
1:55 PM,51.6,32.4,48,30.26,10.0,SSE,8.1,-,N/A,,Scattered Clouds,150,2013-11-03 19:55:00
2:15 PM,52.0,32.2,47,30.26,10.0,SE,9.2,-,N/A,,Scattered Clouds,130,2013-11-03 20:15:00
2:35 PM,51.8,32.2,47,30.25,10.0,ESE,8.1,-,N/A,,Scattered Clouds,120,2013-11-03 20:35:00
2:55 PM,51.4,31.5,46,30.25,10.0,SE,8.1,-,N/A,,Clear,140,2013-11-03 20:55:00
3:15 PM,50.9,31.5,47,30.24,10.0,SSE,8.1,-,N/A,,Clear,160,2013-11-03 21:15:00
3:35 PM,50.9,32.2,49,30.24,10.0,South,10.4,-,N/A,,Clear,170,2013-11-03 21:35:00
3:55 PM,50.0,32.5,51,30.25,10.0,SSE,6.9,-,N/A,,Clear,150,2013-11-03 21:55:00
4:15 PM,49.5,32.2,51,30.25,10.0,SSE,6.9,-,N/A,,Clear,150,2013-11-03 22:15:00
4:35 PM,48.2,32.2,54,30.25,10.0,SE,5.8,-,N/A,,Clear,140,2013-11-03 22:35:00
4:55 PM,46.4,32.9,59,30.25,10.0,SE,5.8,-,N/A,,Clear,140,2013-11-03 22:55:00
5:15 PM,45.7,32.9,61,30.25,10.0,SE,4.6,-,N/A,,Clear,130,2013-11-03 23:15:00
5:35 PM,44.4,33.3,65,30.25,10.0,ESE,4.6,-,N/A,,Clear,120,2013-11-03 23:35:00
5:55 PM,43.7,34.0,69,30.25,10.0,SE,5.8,-,N/A,,Clear,130,2013-11-03 23:55:00
6:15 PM,44.1,34.3,69,30.25,10.0,SE,6.9,-,N/A,,Clear,130,2013-11-04 00:15:00
6:35 PM,44.1,34.7,70,30.25,10.0,SE,6.9,-,N/A,,Clear,130,2013-11-04 00:35:00
6:55 PM,44.1,34.9,70,30.26,10.0,SE,8.1,-,N/A,,Clear,130,2013-11-04 00:55:00
7:15 PM,43.5,34.9,72,30.25,10.0,SE,9.2,-,N/A,,Clear,130,2013-11-04 01:15:00
7:35 PM,43.5,35.6,74,30.26,10.0,ESE,9.2,-,N/A,,Clear,120,2013-11-04 01:35:00
7:55 PM,43.3,36.1,76,30.25,10.0,ESE,10.4,-,N/A,,Clear,120,2013-11-04 01:55:00
8:15 PM,43.7,36.5,76,30.25,10.0,SE,9.2,-,N/A,,Clear,130,2013-11-04 02:15:00
8:35 PM,43.3,36.5,77,30.25,10.0,SE,8.1,-,N/A,,Clear,130,2013-11-04 02:35:00
8:55 PM,43.2,36.5,77,30.26,10.0,SE,8.1,-,N/A,,Clear,130,2013-11-04 02:55:00
9:15 PM,42.8,36.1,77,30.26,10.0,SE,9.2,-,N/A,,Clear,130,2013-11-04 03:15:00
9:35 PM,42.8,36.1,77,30.26,10.0,ESE,8.1,-,N/A,,Clear,120,2013-11-04 03:35:00
9:55 PM,42.4,36.0,78,30.27,10.0,SE,10.4,-,N/A,,Clear,130,2013-11-04 03:55:00
10:15 PM,42.4,36.0,78,30.27,10.0,SE,9.2,16.1,N/A,,Clear,130,2013-11-04 04:15:00
10:35 PM,41.9,35.8,79,30.27,10.0,SE,8.1,-,N/A,,Clear,130,2013-11-04 04:35:00
10:55 PM,41.9,36.0,79,30.27,10.0,ESE,10.4,-,N/A,,Clear,120,2013-11-04 04:55:00